Orbital Elements at Epoch 2459200.5 (2020-Dec-17.0) TDB
Reference: JPL 33 (heliocentric ecliptic J2000)
Element | Value | Uncertainty (1-sigma) | Units |
e | .2368488150942862 | 3.1953e-08 | |
a | 2.603024441115142 | 7.3739e-09 | au |
q | 1.986501186575554 | 8.324e-08 | au |
i | 1.595352631023872 | 3.555e-06 | deg |
node | 53.39835027868165 | 0.00013348 | deg |
peri | 14.31307160227856 | 0.00013367 | deg |
M | 9.073845306473428 | 7.5335e-06 | deg |
tp | 2459161.836188390206 (2020-Nov-08.33618839) | 3.2059e-05 | TDB |
period | 1533.966219326639 4.20 | 6.5182e-06 1.785e-08 | d yr |
n | .2346857417486209 | 9.9723e-10 | deg/d |
Q | 3.21954769565473 | 9.1204e-09 | au |
|
| | Orbit Determination Parameters
Additional Information
|